Year,Month,Day,Hour,Minute,Value (Times are PST for temperature in C)
2013,07,23,00,00,18.10
2013,07,23,00,01,18.10
2013,07,23,00,02,18.10
2013,07,23,00,03,18.10
2013,07,23,00,04,18.10
2013,07,23,00,05,18.10
2013,07,23,00,06,18.10
2013,07,23,00,07,18.10
2013,07,23,00,08,18.10
2013,07,23,00,09,18.10
2013,07,23,00,10,18.10
2013,07,23,00,11,18.10
2013,07,23,00,12,18.00
2013,07,23,00,13,18.00
2013,07,23,00,14,18.00
2013,07,23,00,15,17.90
2013,07,23,00,16,17.90
2013,07,23,00,17,17.80
2013,07,23,00,18,17.80
2013,07,23,00,19,17.80
2013,07,23,00,20,17.70
2013,07,23,00,21,17.70
2013,07,23,00,22,17.70
2013,07,23,00,23,17.60
2013,07,23,00,24,17.60
2013,07,23,00,25,17.50
2013,07,23,00,26,17.50
2013,07,23,00,27,17.40
2013,07,23,00,28,17.40
2013,07,23,00,29,17.40
2013,07,23,00,30,17.30
2013,07,23,00,31,17.30
2013,07,23,00,32,17.20
2013,07,23,00,33,17.20
2013,07,23,00,34,17.10
2013,07,23,00,35,17.10
2013,07,23,00,36,17.00
2013,07,23,00,37,17.00
2013,07,23,00,38,16.90
2013,07,23,00,39,16.90
2013,07,23,00,40,16.90
2013,07,23,00,41,16.90
2013,07,23,00,42,16.90
2013,07,23,00,43,16.90
2013,07,23,00,44,16.80
2013,07,23,00,45,16.80
2013,07,23,00,46,16.80
2013,07,23,00,47,16.80
2013,07,23,00,48,16.80
2013,07,23,00,49,16.80
2013,07,23,00,50,16.80
2013,07,23,00,51,16.70
2013,07,23,00,52,16.70
2013,07,23,00,53,16.70
2013,07,23,00,54,16.70
2013,07,23,00,55,16.70
2013,07,23,00,56,16.70
2013,07,23,00,57,16.70
2013,07,23,00,58,16.70
2013,07,23,00,59,16.70
2013,07,23,01,00,16.60
2013,07,23,01,01,16.60
2013,07,23,01,02,16.60
2013,07,23,01,03,16.60
2013,07,23,01,04,16.60
2013,07,23,01,05,16.60
2013,07,23,01,06,16.60
2013,07,23,01,07,16.60
2013,07,23,01,08,16.60
2013,07,23,01,09,16.50
2013,07,23,01,10,16.50
2013,07,23,01,11,16.50
2013,07,23,01,12,16.50
2013,07,23,01,13,16.50
2013,07,23,01,14,16.40
2013,07,23,01,15,16.40
2013,07,23,01,16,16.40
2013,07,23,01,17,16.40
2013,07,23,01,18,16.40
2013,07,23,01,19,16.40
2013,07,23,01,20,16.30
2013,07,23,01,21,16.30
2013,07,23,01,22,16.30
2013,07,23,01,23,16.30
2013,07,23,01,24,16.30
2013,07,23,01,25,16.30
2013,07,23,01,26,16.30
2013,07,23,01,27,16.20
2013,07,23,01,28,16.20
2013,07,23,01,29,16.20
2013,07,23,01,30,16.20
2013,07,23,01,31,16.20
2013,07,23,01,32,16.10
2013,07,23,01,33,16.10
2013,07,23,01,34,16.10
2013,07,23,01,35,16.10
2013,07,23,01,36,16.10
2013,07,23,01,37,16.10
2013,07,23,01,38,16.00
2013,07,23,01,39,16.00
2013,07,23,01,40,15.90
2013,07,23,01,41,15.90
2013,07,23,01,42,15.90
2013,07,23,01,43,15.80
2013,07,23,01,44,15.80
2013,07,23,01,45,15.80
2013,07,23,01,46,15.70
2013,07,23,01,47,15.70
2013,07,23,01,48,15.70
2013,07,23,01,49,15.70
2013,07,23,01,50,15.60
2013,07,23,01,51,15.70
2013,07,23,01,52,15.70
2013,07,23,01,53,15.70
2013,07,23,01,54,15.60
2013,07,23,01,55,15.60
2013,07,23,01,56,15.60
2013,07,23,01,57,15.60
2013,07,23,01,58,15.60
2013,07,23,01,59,15.60
2013,07,23,02,00,15.60
2013,07,23,02,01,15.60
2013,07,23,02,02,15.60
2013,07,23,02,03,15.60
2013,07,23,02,04,15.50
2013,07,23,02,05,15.50
2013,07,23,02,06,15.50
2013,07,23,02,07,15.50
2013,07,23,02,08,15.40
2013,07,23,02,09,15.50
2013,07,23,02,10,15.50
2013,07,23,02,11,15.40
2013,07,23,02,12,15.50
2013,07,23,02,13,15.40
2013,07,23,02,14,15.40
2013,07,23,02,15,15.40
2013,07,23,02,16,15.40
2013,07,23,02,17,15.40
2013,07,23,02,18,15.40
2013,07,23,02,19,15.40
2013,07,23,02,20,15.40
2013,07,23,02,21,15.40
2013,07,23,02,22,15.40
2013,07,23,02,23,15.40
2013,07,23,02,24,15.40
2013,07,23,02,25,15.40
2013,07,23,02,26,15.40
2013,07,23,02,27,15.30
2013,07,23,02,28,15.30
2013,07,23,02,29,15.30
2013,07,23,02,30,15.30
2013,07,23,02,31,15.30
2013,07,23,02,32,15.30
2013,07,23,02,33,15.30
2013,07,23,02,34,15.30
2013,07,23,02,35,15.30
2013,07,23,02,36,15.30
2013,07,23,02,37,15.30
2013,07,23,02,38,15.30
2013,07,23,02,39,15.30
2013,07,23,02,40,15.30
2013,07,23,02,41,15.30
2013,07,23,02,42,15.30
2013,07,23,02,43,15.30
2013,07,23,02,44,15.30
2013,07,23,02,45,15.30
2013,07,23,02,46,15.30
2013,07,23,02,47,15.20
2013,07,23,02,48,15.20
2013,07,23,02,49,15.20
2013,07,23,02,50,15.20
2013,07,23,02,51,15.20
2013,07,23,02,52,15.20
2013,07,23,02,53,15.20
2013,07,23,02,54,15.20
2013,07,23,02,55,15.20
2013,07,23,02,56,15.20
2013,07,23,02,57,15.20
2013,07,23,02,58,15.20
2013,07,23,02,59,15.20
2013,07,23,03,00,15.20
2013,07,23,03,01,15.20
2013,07,23,03,02,15.20
2013,07,23,03,03,15.20
2013,07,23,03,04,15.20
2013,07,23,03,05,15.20
2013,07,23,03,06,15.20
2013,07,23,03,07,15.10
2013,07,23,03,08,15.10
2013,07,23,03,09,15.10
2013,07,23,03,10,15.10
2013,07,23,03,11,15.10
2013,07,23,03,12,15.10
2013,07,23,03,13,15.00
2013,07,23,03,14,15.00
2013,07,23,03,15,15.00
2013,07,23,03,16,15.00
2013,07,23,03,17,15.00
2013,07,23,03,18,14.90
2013,07,23,03,19,14.90
2013,07,23,03,20,14.90
2013,07,23,03,21,14.90
2013,07,23,03,22,14.90
2013,07,23,03,23,14.90
2013,07,23,03,24,14.90
2013,07,23,03,25,14.90
2013,07,23,03,26,14.80
2013,07,23,03,27,14.80
2013,07,23,03,28,14.80
2013,07,23,03,29,14.80
2013,07,23,03,30,14.70
2013,07,23,03,31,14.70
2013,07,23,03,32,14.70
2013,07,23,03,33,14.70
2013,07,23,03,34,14.60
2013,07,23,03,35,14.60
2013,07,23,03,36,14.60
2013,07,23,03,37,14.60
2013,07,23,03,38,14.50
2013,07,23,03,39,14.50
2013,07,23,03,40,14.40
2013,07,23,03,41,14.40
2013,07,23,03,42,14.40
2013,07,23,03,43,14.40
2013,07,23,03,44,14.40
2013,07,23,03,45,14.40
2013,07,23,03,46,14.30
2013,07,23,03,47,14.30
2013,07,23,03,48,14.30
2013,07,23,03,49,14.30
2013,07,23,03,50,14.30
2013,07,23,03,51,14.30
2013,07,23,03,52,14.30
2013,07,23,03,53,14.30
2013,07,23,03,54,14.30
2013,07,23,03,55,14.30
2013,07,23,03,56,14.30
2013,07,23,03,57,14.30
2013,07,23,03,58,14.30
2013,07,23,03,59,14.30
2013,07,23,04,00,14.30
2013,07,23,04,01,14.20
2013,07,23,04,02,14.20
2013,07,23,04,03,14.20
2013,07,23,04,04,14.20
2013,07,23,04,05,14.20
2013,07,23,04,06,14.20
2013,07,23,04,07,14.20
2013,07,23,04,08,14.20
2013,07,23,04,09,14.20
2013,07,23,04,10,14.20
2013,07,23,04,11,14.20
2013,07,23,04,12,14.20
2013,07,23,04,13,14.10
2013,07,23,04,14,14.10
2013,07,23,04,15,14.10
2013,07,23,04,16,14.10
2013,07,23,04,17,14.10
2013,07,23,04,18,14.10
2013,07,23,04,19,14.00
2013,07,23,04,20,14.00
2013,07,23,04,21,14.00
2013,07,23,04,22,14.00
2013,07,23,04,23,13.90
2013,07,23,04,24,13.90
2013,07,23,04,25,13.90
2013,07,23,04,26,13.90
2013,07,23,04,27,13.90
2013,07,23,04,28,13.90
2013,07,23,04,29,13.90
2013,07,23,04,30,13.90
2013,07,23,04,31,13.90
2013,07,23,04,32,13.90
2013,07,23,04,33,13.90
2013,07,23,04,34,13.90
2013,07,23,04,35,13.90
2013,07,23,04,36,13.90
2013,07,23,04,37,13.90
2013,07,23,04,38,13.90
2013,07,23,04,39,13.90
2013,07,23,04,40,13.90
2013,07,23,04,41,13.90
2013,07,23,04,42,13.90
2013,07,23,04,43,13.90
2013,07,23,04,44,13.90
2013,07,23,04,45,13.90
2013,07,23,04,46,13.90
2013,07,23,04,47,13.90
2013,07,23,04,48,13.90
2013,07,23,04,49,13.80
2013,07,23,04,50,13.80
2013,07,23,04,51,13.80
2013,07,23,04,52,13.80
2013,07,23,04,53,13.80
2013,07,23,04,54,13.80
2013,07,23,04,55,13.80
2013,07,23,04,56,13.80
2013,07,23,04,57,13.80
2013,07,23,04,58,13.80
2013,07,23,04,59,13.80
2013,07,23,05,00,13.80
2013,07,23,05,01,13.80
2013,07,23,05,02,13.80
2013,07,23,05,03,13.80
2013,07,23,05,04,13.80
2013,07,23,05,05,13.80
2013,07,23,05,06,13.80
2013,07,23,05,07,13.80
2013,07,23,05,08,13.80
2013,07,23,05,09,13.80
2013,07,23,05,10,13.80
2013,07,23,05,11,13.80
2013,07,23,05,12,13.80
2013,07,23,05,13,13.80
2013,07,23,05,14,13.80
2013,07,23,05,15,13.80
2013,07,23,05,16,13.80
2013,07,23,05,17,13.70
2013,07,23,05,18,13.70
2013,07,23,05,19,13.70
2013,07,23,05,20,13.70
2013,07,23,05,21,13.70
2013,07,23,05,22,13.70
2013,07,23,05,23,13.70
2013,07,23,05,24,13.60
2013,07,23,05,25,13.60
2013,07,23,05,26,13.60
2013,07,23,05,27,13.60
2013,07,23,05,28,13.60
2013,07,23,05,29,13.60
2013,07,23,05,30,13.60
2013,07,23,05,31,13.60
2013,07,23,05,32,13.50
2013,07,23,05,33,13.50
2013,07,23,05,34,13.50
2013,07,23,05,35,13.50
2013,07,23,05,36,13.50
2013,07,23,05,37,13.50
2013,07,23,05,38,13.50
2013,07,23,05,39,13.40
2013,07,23,05,40,13.40
2013,07,23,05,41,13.40
2013,07,23,05,42,13.40
2013,07,23,05,43,13.40
2013,07,23,05,44,13.30
2013,07,23,05,45,13.30
2013,07,23,05,46,13.30
2013,07,23,05,47,13.30
2013,07,23,05,48,13.30
2013,07,23,05,49,13.20
2013,07,23,05,50,13.20
2013,07,23,05,51,13.20
2013,07,23,05,52,13.20
2013,07,23,05,53,13.30
2013,07,23,05,54,13.30
2013,07,23,05,55,13.30
2013,07,23,05,56,13.30
2013,07,23,05,57,13.30
2013,07,23,05,58,13.30
2013,07,23,05,59,13.30
2013,07,23,06,00,13.30
2013,07,23,06,01,13.30
2013,07,23,06,02,13.30
2013,07,23,06,03,13.30
2013,07,23,06,04,13.30
2013,07,23,06,05,13.30
2013,07,23,06,06,13.30
2013,07,23,06,07,13.40
2013,07,23,06,08,13.40
2013,07,23,06,09,13.40
2013,07,23,06,10,13.40
2013,07,23,06,11,13.50
2013,07,23,06,12,13.50
2013,07,23,06,13,13.50
2013,07,23,06,14,13.60
2013,07,23,06,15,13.60
2013,07,23,06,16,13.60
2013,07,23,06,17,13.70
2013,07,23,06,18,13.70
2013,07,23,06,19,13.70
2013,07,23,06,20,13.70
2013,07,23,06,21,13.80
2013,07,23,06,22,13.80
2013,07,23,06,23,13.80
2013,07,23,06,24,13.80
2013,07,23,06,25,13.90
2013,07,23,06,26,13.90
2013,07,23,06,27,14.00
2013,07,23,06,28,14.00
2013,07,23,06,29,14.10
2013,07,23,06,30,14.10
2013,07,23,06,31,14.20
2013,07,23,06,32,14.20
2013,07,23,06,33,14.30
2013,07,23,06,34,14.30
2013,07,23,06,35,14.40
2013,07,23,06,36,14.50
2013,07,23,06,37,14.50
2013,07,23,06,38,14.60
2013,07,23,06,39,14.70
2013,07,23,06,40,14.70
2013,07,23,06,41,14.80
2013,07,23,06,42,14.80
2013,07,23,06,43,14.90
2013,07,23,06,44,15.00
2013,07,23,06,45,15.00
2013,07,23,06,46,15.00
2013,07,23,06,47,15.00
2013,07,23,06,48,15.00
2013,07,23,06,49,15.00
2013,07,23,06,50,14.90
2013,07,23,06,51,14.90
2013,07,23,06,52,14.90
2013,07,23,06,53,14.90
2013,07,23,06,54,14.90
2013,07,23,06,55,14.90
2013,07,23,06,56,14.90
2013,07,23,06,57,14.90
2013,07,23,06,58,14.90
2013,07,23,06,59,15.00
2013,07,23,07,00,15.00
2013,07,23,07,01,15.10
2013,07,23,07,02,15.10
2013,07,23,07,03,15.20
2013,07,23,07,04,15.30
2013,07,23,07,05,15.40
2013,07,23,07,06,15.40
2013,07,23,07,07,15.50
2013,07,23,07,08,15.50
2013,07,23,07,09,15.60
2013,07,23,07,10,15.60
2013,07,23,07,11,15.60
2013,07,23,07,12,15.60
2013,07,23,07,13,15.60
2013,07,23,07,14,15.60
2013,07,23,07,15,15.60
2013,07,23,07,16,15.60
2013,07,23,07,17,15.60
2013,07,23,07,18,15.70
2013,07,23,07,19,15.70
2013,07,23,07,20,15.70
2013,07,23,07,21,15.80
2013,07,23,07,22,15.80
2013,07,23,07,23,15.80
2013,07,23,07,24,15.90
2013,07,23,07,25,15.90
2013,07,23,07,26,16.00
2013,07,23,07,27,16.10
2013,07,23,07,28,16.10
2013,07,23,07,29,16.20
2013,07,23,07,30,16.20
2013,07,23,07,31,16.30
2013,07,23,07,32,16.30
2013,07,23,07,33,16.30
2013,07,23,07,34,16.30
2013,07,23,07,35,16.30
2013,07,23,07,36,16.30
2013,07,23,07,37,16.40
2013,07,23,07,38,16.40
2013,07,23,07,39,16.40
2013,07,23,07,40,16.40
2013,07,23,07,41,16.40
2013,07,23,07,42,16.50
2013,07,23,07,43,16.50
2013,07,23,07,44,16.60
2013,07,23,07,45,16.60
2013,07,23,07,46,16.70
2013,07,23,07,47,16.70
2013,07,23,07,48,16.80
2013,07,23,07,49,16.90
2013,07,23,07,50,17.00
2013,07,23,07,51,17.10
2013,07,23,07,52,17.20
2013,07,23,07,53,17.20
2013,07,23,07,54,17.30
2013,07,23,07,55,17.40
2013,07,23,07,56,17.40
2013,07,23,07,57,17.50
2013,07,23,07,58,17.50
2013,07,23,07,59,17.60
2013,07,23,08,00,17.60
2013,07,23,08,01,17.70
2013,07,23,08,02,17.70
2013,07,23,08,03,17.70
2013,07,23,08,04,17.70
2013,07,23,08,05,17.70
2013,07,23,08,06,17.70
2013,07,23,08,07,17.80
2013,07,23,08,08,17.80
2013,07,23,08,09,17.80
2013,07,23,08,10,17.80
2013,07,23,08,11,17.90
2013,07,23,08,12,17.90
2013,07,23,08,13,17.90
2013,07,23,08,14,17.90
2013,07,23,08,15,18.00
2013,07,23,08,16,18.00
2013,07,23,08,17,18.00
2013,07,23,08,18,18.10
2013,07,23,08,19,18.10
2013,07,23,08,20,18.10
2013,07,23,08,21,18.10
2013,07,23,08,22,18.20
2013,07,23,08,23,18.20
2013,07,23,08,24,18.30
2013,07,23,08,25,18.30
2013,07,23,08,26,18.40
2013,07,23,08,27,18.40
2013,07,23,08,28,18.40
2013,07,23,08,29,18.40
2013,07,23,08,30,18.50
2013,07,23,08,31,18.50
2013,07,23,08,32,18.50
2013,07,23,08,33,18.60
2013,07,23,08,34,18.60
2013,07,23,08,35,18.70
2013,07,23,08,36,18.70
2013,07,23,08,37,18.80
2013,07,23,08,38,18.80
2013,07,23,08,39,18.90
2013,07,23,08,40,18.90
2013,07,23,08,41,18.90
2013,07,23,08,42,19.00
2013,07,23,08,43,19.00
2013,07,23,08,44,19.00
2013,07,23,08,45,19.10
2013,07,23,08,46,19.10
2013,07,23,08,47,19.10
2013,07,23,08,48,19.10
2013,07,23,08,49,19.10
2013,07,23,08,50,19.10
2013,07,23,08,51,19.10
2013,07,23,08,52,19.20
2013,07,23,08,53,19.20
2013,07,23,08,54,19.20
2013,07,23,08,55,19.30
2013,07,23,08,56,19.30
2013,07,23,08,57,19.30
2013,07,23,08,58,19.40
2013,07,23,08,59,19.40
2013,07,23,09,00,19.40
2013,07,23,09,01,19.40
2013,07,23,09,02,19.50
2013,07,23,09,03,19.60
2013,07,23,09,04,19.60
2013,07,23,09,05,19.70
2013,07,23,09,06,19.80
2013,07,23,09,07,19.90
2013,07,23,09,08,19.90
2013,07,23,09,09,19.90
2013,07,23,09,10,20.00
2013,07,23,09,11,20.00
2013,07,23,09,12,20.00
2013,07,23,09,13,20.00
2013,07,23,09,14,20.00
2013,07,23,09,15,20.00
2013,07,23,09,16,20.00
2013,07,23,09,17,20.10
2013,07,23,09,18,20.10
2013,07,23,09,19,20.20
2013,07,23,09,20,20.20
2013,07,23,09,21,20.20
2013,07,23,09,22,20.30
2013,07,23,09,23,20.30
2013,07,23,09,24,20.30
2013,07,23,09,25,20.30
2013,07,23,09,26,20.40
2013,07,23,09,27,20.40
2013,07,23,09,28,20.40
2013,07,23,09,29,20.40
2013,07,23,09,30,20.50
2013,07,23,09,31,20.50
2013,07,23,09,32,20.50
2013,07,23,09,33,20.50
2013,07,23,09,34,20.50
2013,07,23,09,35,20.50
2013,07,23,09,36,20.60
2013,07,23,09,37,20.60
2013,07,23,09,38,20.60
2013,07,23,09,39,20.60
2013,07,23,09,40,20.70
2013,07,23,09,41,20.70
2013,07,23,09,42,20.80
2013,07,23,09,43,20.80
2013,07,23,09,44,20.90
2013,07,23,09,45,20.90
2013,07,23,09,46,20.90
2013,07,23,09,47,20.90
2013,07,23,09,48,20.90
2013,07,23,09,49,20.90
2013,07,23,09,50,20.90
2013,07,23,09,51,20.90
2013,07,23,09,52,21.00
2013,07,23,09,53,21.10
2013,07,23,09,54,21.10
2013,07,23,09,55,21.20
2013,07,23,09,56,21.20
2013,07,23,09,57,21.30
2013,07,23,09,58,21.40
2013,07,23,09,59,21.40
2013,07,23,10,00,21.50
2013,07,23,10,01,21.50
2013,07,23,10,02,21.60
2013,07,23,10,03,21.60
2013,07,23,10,04,21.70
2013,07,23,10,05,21.70
2013,07,23,10,06,21.70
2013,07,23,10,07,21.80
2013,07,23,10,08,21.80
2013,07,23,10,09,21.80
2013,07,23,10,10,21.90
2013,07,23,10,11,21.90
2013,07,23,10,12,21.90
2013,07,23,10,13,21.80
2013,07,23,10,14,21.80
2013,07,23,10,15,21.90
2013,07,23,10,16,21.90
2013,07,23,10,17,22.00
2013,07,23,10,18,22.10
2013,07,23,10,19,22.10
2013,07,23,10,20,22.10
2013,07,23,10,21,22.10
2013,07,23,10,22,22.20
2013,07,23,10,23,22.20
2013,07,23,10,24,22.20
2013,07,23,10,25,22.20
2013,07,23,10,26,22.20
2013,07,23,10,27,22.30
2013,07,23,10,28,22.30
2013,07,23,10,29,22.40
2013,07,23,10,30,22.40
2013,07,23,10,31,22.50
2013,07,23,10,32,22.50
2013,07,23,10,33,22.60
2013,07,23,10,34,22.60
2013,07,23,10,35,22.70
2013,07,23,10,36,22.70
2013,07,23,10,37,22.70
2013,07,23,10,38,22.70
2013,07,23,10,39,22.70
2013,07,23,10,40,22.70
2013,07,23,10,41,22.70
2013,07,23,10,42,22.70
2013,07,23,10,43,22.60
2013,07,23,10,44,22.60
2013,07,23,10,45,22.60
2013,07,23,10,46,22.60
2013,07,23,10,47,22.70
2013,07,23,10,48,22.70
2013,07,23,10,49,22.80
2013,07,23,10,50,22.80
2013,07,23,10,51,22.80
2013,07,23,10,52,22.80
2013,07,23,10,53,22.90
2013,07,23,10,54,22.90
2013,07,23,10,55,23.00
2013,07,23,10,56,23.00
2013,07,23,10,57,23.10
2013,07,23,10,58,23.10
2013,07,23,10,59,23.20
2013,07,23,11,00,23.30
2013,07,23,11,01,23.30
2013,07,23,11,02,23.40
2013,07,23,11,03,23.40
2013,07,23,11,04,23.40
2013,07,23,11,05,23.50
2013,07,23,11,06,23.50
2013,07,23,11,07,23.50
2013,07,23,11,08,23.60
2013,07,23,11,09,23.60
2013,07,23,11,10,23.60
2013,07,23,11,11,23.60
2013,07,23,11,12,23.60
2013,07,23,11,13,23.60
2013,07,23,11,14,23.70
2013,07,23,11,15,23.70
2013,07,23,11,16,23.70
2013,07,23,11,17,23.70
2013,07,23,11,18,23.80
2013,07,23,11,19,23.80
2013,07,23,11,20,23.90
2013,07,23,11,21,23.90
2013,07,23,11,22,23.90
2013,07,23,11,23,23.90
2013,07,23,11,24,23.90
2013,07,23,11,25,23.90
2013,07,23,11,26,23.90
2013,07,23,11,27,23.90
2013,07,23,11,28,23.90
2013,07,23,11,29,23.90
2013,07,23,11,30,23.90
2013,07,23,11,31,23.90
2013,07,23,11,32,23.90
2013,07,23,11,33,23.90
2013,07,23,11,34,24.00
2013,07,23,11,35,24.10
2013,07,23,11,36,24.10
2013,07,23,11,37,24.10
2013,07,23,11,38,24.00
2013,07,23,11,39,24.00
2013,07,23,11,40,24.00
2013,07,23,11,41,24.00
2013,07,23,11,42,24.00
2013,07,23,11,43,24.10
2013,07,23,11,44,24.20
2013,07,23,11,45,24.20
2013,07,23,11,46,24.30
2013,07,23,11,47,24.30
2013,07,23,11,48,24.30
2013,07,23,11,49,24.30
2013,07,23,11,50,24.20
2013,07,23,11,51,24.20
2013,07,23,11,52,24.30
2013,07,23,11,53,24.30
2013,07,23,11,54,24.40
2013,07,23,11,55,24.40
2013,07,23,11,56,24.30
2013,07,23,11,57,24.30
2013,07,23,11,58,24.30
2013,07,23,11,59,24.30
2013,07,23,12,00,24.30
2013,07,23,12,01,24.30
2013,07,23,12,02,24.30
2013,07,23,12,03,24.30
2013,07,23,12,04,24.20
2013,07,23,12,05,24.20
2013,07,23,12,06,24.20
2013,07,23,12,07,24.20
2013,07,23,12,08,24.20
2013,07,23,12,09,24.20
2013,07,23,12,10,24.20
2013,07,23,12,11,24.20
2013,07,23,12,12,24.10
2013,07,23,12,13,24.10
2013,07,23,12,14,24.10
2013,07,23,12,15,24.20
2013,07,23,12,16,24.30
2013,07,23,12,17,24.40
2013,07,23,12,18,24.50
2013,07,23,12,19,24.60
2013,07,23,12,20,24.60
2013,07,23,12,21,24.60
2013,07,23,12,22,24.70
2013,07,23,12,23,24.70
2013,07,23,12,24,24.80
2013,07,23,12,25,24.80
2013,07,23,12,26,24.80
2013,07,23,12,27,24.80
2013,07,23,12,28,24.80
2013,07,23,12,29,24.90
2013,07,23,12,30,24.90
2013,07,23,12,31,24.90
2013,07,23,12,32,24.90
2013,07,23,12,33,24.90
2013,07,23,12,34,24.90
2013,07,23,12,35,25.10
2013,07,23,12,36,25.20
2013,07,23,12,37,25.20
2013,07,23,12,38,25.20
2013,07,23,12,39,25.30
2013,07,23,12,40,25.40
2013,07,23,12,41,25.40
2013,07,23,12,42,25.40
2013,07,23,12,43,25.40
2013,07,23,12,44,25.40
2013,07,23,12,45,25.40
2013,07,23,12,46,25.40
2013,07,23,12,47,25.40
2013,07,23,12,48,25.50
2013,07,23,12,49,25.50
2013,07,23,12,50,25.60
2013,07,23,12,51,25.70
2013,07,23,12,52,25.60
2013,07,23,12,53,25.60
2013,07,23,12,54,25.50
2013,07,23,12,55,25.40
2013,07,23,12,56,25.30
2013,07,23,12,57,25.30
2013,07,23,12,58,25.20
2013,07,23,12,59,25.20
2013,07,23,13,00,25.30
2013,07,23,13,01,25.30
2013,07,23,13,02,25.30
2013,07,23,13,03,25.30
2013,07,23,13,04,25.30
2013,07,23,13,05,25.20
2013,07,23,13,06,25.10
2013,07,23,13,07,25.10
2013,07,23,13,08,25.10
2013,07,23,13,09,25.10
2013,07,23,13,10,25.10
2013,07,23,13,11,25.10
2013,07,23,13,12,25.10
2013,07,23,13,13,25.20
2013,07,23,13,14,25.30
2013,07,23,13,15,25.40
2013,07,23,13,16,25.50
2013,07,23,13,17,25.50
2013,07,23,13,18,25.60
2013,07,23,13,19,25.60
2013,07,23,13,20,25.60
2013,07,23,13,21,25.50
2013,07,23,13,22,25.50
2013,07,23,13,23,25.60
2013,07,23,13,24,25.60
2013,07,23,13,25,25.70
2013,07,23,13,26,25.90
2013,07,23,13,27,26.00
2013,07,23,13,28,26.10
2013,07,23,13,29,26.10
2013,07,23,13,30,26.20
2013,07,23,13,31,26.20
2013,07,23,13,32,26.20
2013,07,23,13,33,26.30
2013,07,23,13,34,26.40
2013,07,23,13,35,26.40
2013,07,23,13,36,26.40
2013,07,23,13,37,26.40
2013,07,23,13,38,26.40
2013,07,23,13,39,26.40
2013,07,23,13,40,26.40
2013,07,23,13,41,26.40
2013,07,23,13,42,26.40
2013,07,23,13,43,26.30
2013,07,23,13,44,26.30
2013,07,23,13,45,26.30
2013,07,23,13,46,26.30
2013,07,23,13,47,26.30
2013,07,23,13,48,26.30
2013,07,23,13,49,26.30
2013,07,23,13,50,26.30
2013,07,23,13,51,26.40
2013,07,23,13,52,26.30
2013,07,23,13,53,26.30
2013,07,23,13,54,26.20
2013,07,23,13,55,26.10
2013,07,23,13,56,26.10
2013,07,23,13,57,26.10
2013,07,23,13,58,26.20
2013,07,23,13,59,26.20
2013,07,23,14,00,26.20
2013,07,23,14,01,26.20
2013,07,23,14,02,26.20
2013,07,23,14,03,26.20
2013,07,23,14,04,26.10
2013,07,23,14,05,26.10
2013,07,23,14,06,26.00
2013,07,23,14,07,25.90
2013,07,23,14,08,25.90
2013,07,23,14,09,25.90
2013,07,23,14,10,25.90
2013,07,23,14,11,25.80
2013,07,23,14,12,25.80
2013,07,23,14,13,25.90
2013,07,23,14,14,25.90
2013,07,23,14,15,26.00
2013,07,23,14,16,26.10
2013,07,23,14,17,26.20
2013,07,23,14,18,26.30
2013,07,23,14,19,26.40
2013,07,23,14,20,26.50
2013,07,23,14,21,26.60
2013,07,23,14,22,26.80
2013,07,23,14,23,26.90
2013,07,23,14,24,27.00
2013,07,23,14,25,27.10
2013,07,23,14,26,27.00
2013,07,23,14,27,27.10
2013,07,23,14,28,27.10
2013,07,23,14,29,27.10
2013,07,23,14,30,27.20
2013,07,23,14,31,27.10
2013,07,23,14,32,27.10
2013,07,23,14,33,27.10
2013,07,23,14,34,27.10
2013,07,23,14,35,27.10
2013,07,23,14,36,27.00
2013,07,23,14,37,27.00
2013,07,23,14,38,27.00
2013,07,23,14,39,26.90
2013,07,23,14,40,27.00
2013,07,23,14,41,27.10
2013,07,23,14,42,27.20
2013,07,23,14,43,27.30
2013,07,23,14,44,27.40
2013,07,23,14,45,27.50
2013,07,23,14,46,27.50
2013,07,23,14,47,27.60
2013,07,23,14,48,27.60
2013,07,23,14,49,27.50
2013,07,23,14,50,27.40
2013,07,23,14,51,27.30
2013,07,23,14,52,27.20
2013,07,23,14,53,27.10
2013,07,23,14,54,27.00
2013,07,23,14,55,27.00
2013,07,23,14,56,27.00
2013,07,23,14,57,27.10
2013,07,23,14,58,27.20
2013,07,23,14,59,27.30
2013,07,23,15,00,27.30
2013,07,23,15,01,27.20
2013,07,23,15,02,27.20
2013,07,23,15,03,27.20
2013,07,23,15,04,27.20
2013,07,23,15,05,27.10
2013,07,23,15,06,27.10
2013,07,23,15,07,27.10
2013,07,23,15,08,27.20
2013,07,23,15,09,27.20
2013,07,23,15,10,27.30
2013,07,23,15,11,27.40
2013,07,23,15,12,27.40
2013,07,23,15,13,27.50
2013,07,23,15,14,27.40
2013,07,23,15,15,27.40
2013,07,23,15,16,27.30
2013,07,23,15,17,27.30
2013,07,23,15,18,27.40
2013,07,23,15,19,27.50
2013,07,23,15,20,27.50
2013,07,23,15,21,27.60
2013,07,23,15,22,27.60
2013,07,23,15,23,27.60
2013,07,23,15,24,27.60
2013,07,23,15,25,27.60
2013,07,23,15,26,27.70
2013,07,23,15,27,27.70
2013,07,23,15,28,27.70
2013,07,23,15,29,27.70
2013,07,23,15,30,27.50
2013,07,23,15,31,27.40
2013,07,23,15,32,27.30
2013,07,23,15,33,27.30
2013,07,23,15,34,27.40
2013,07,23,15,35,27.40
2013,07,23,15,36,27.40
2013,07,23,15,37,27.50
2013,07,23,15,38,27.60
2013,07,23,15,39,27.60
2013,07,23,15,40,27.70
2013,07,23,15,41,27.70
2013,07,23,15,42,27.70
2013,07,23,15,43,27.80
2013,07,23,15,44,28.00
2013,07,23,15,45,28.00
2013,07,23,15,46,28.00
2013,07,23,15,47,28.00
2013,07,23,15,48,28.00
2013,07,23,15,49,28.00
2013,07,23,15,50,28.00
2013,07,23,15,51,28.00
2013,07,23,15,52,27.90
2013,07,23,15,53,27.90
2013,07,23,15,54,27.80
2013,07,23,15,55,27.80
2013,07,23,15,56,27.80
2013,07,23,15,57,27.80
2013,07,23,15,58,27.80
2013,07,23,15,59,27.70
2013,07,23,16,00,27.70
2013,07,23,16,01,27.60
2013,07,23,16,02,27.60
2013,07,23,16,03,27.50
2013,07,23,16,04,27.50
2013,07,23,16,05,27.40
2013,07,23,16,06,27.40
2013,07,23,16,07,27.50
2013,07,23,16,08,27.60
2013,07,23,16,09,27.60
2013,07,23,16,10,27.60
2013,07,23,16,11,27.50
2013,07,23,16,12,27.40
2013,07,23,16,13,27.40
2013,07,23,16,14,27.20
2013,07,23,16,15,27.10
2013,07,23,16,16,26.90
2013,07,23,16,17,26.80
2013,07,23,16,18,26.80
2013,07,23,16,19,26.90
2013,07,23,16,20,27.00
2013,07,23,16,21,27.30
2013,07,23,16,22,27.40
2013,07,23,16,23,27.50
2013,07,23,16,24,27.60
2013,07,23,16,25,27.70
2013,07,23,16,26,27.70
2013,07,23,16,27,27.60
2013,07,23,16,28,27.60
2013,07,23,16,29,27.60
2013,07,23,16,30,27.60
2013,07,23,16,31,27.60
2013,07,23,16,32,27.70
2013,07,23,16,33,27.70
2013,07,23,16,34,27.70
2013,07,23,16,35,27.70
2013,07,23,16,36,27.70
2013,07,23,16,37,27.80
2013,07,23,16,38,27.90
2013,07,23,16,39,28.10
2013,07,23,16,40,28.10
2013,07,23,16,41,28.20
2013,07,23,16,42,28.30
2013,07,23,16,43,28.40
2013,07,23,16,44,28.50
2013,07,23,16,45,28.60
2013,07,23,16,46,28.60
2013,07,23,16,47,28.60
2013,07,23,16,48,28.60
2013,07,23,16,49,28.60
2013,07,23,16,50,28.70
2013,07,23,16,51,28.80
2013,07,23,16,52,28.90
2013,07,23,16,53,29.00
2013,07,23,16,54,29.00
2013,07,23,16,55,28.90
2013,07,23,16,56,28.90
2013,07,23,16,57,28.90
2013,07,23,16,58,28.90
2013,07,23,16,59,28.90
2013,07,23,17,00,28.90
2013,07,23,17,01,28.90
2013,07,23,17,02,29.00
2013,07,23,17,03,29.00
2013,07,23,17,04,29.10
2013,07,23,17,05,29.20
2013,07,23,17,06,29.20
2013,07,23,17,07,29.30
2013,07,23,17,08,29.30
2013,07,23,17,09,29.30
2013,07,23,17,10,29.40
2013,07,23,17,11,29.40
2013,07,23,17,12,29.50
2013,07,23,17,13,29.50
2013,07,23,17,14,29.60
2013,07,23,17,15,29.60
2013,07,23,17,16,29.60
2013,07,23,17,17,29.60
2013,07,23,17,18,29.60
2013,07,23,17,19,29.70